Погода в Тюлюке

Россия / Челябинская область     54°36′41″N   58°46′19″E
темп.,
°C
ветер,
м/с
пор.,
м/с
влажн.,
%
обл.,
%
осадки,
мм/ч
давл.,
гПа
погр.,
м
13 апреля, вт
вт1323:00+6в119998 0.1 103924
02:00+7юв1299100 0.3 103893
05:00+6юв1210099 0.4 1040143
08:00+5ююв129789 0.0 1040127
11:00+8ююв238550 0.0 1040412
14:00+11ююв237360 0.0 1038753
17:00+11ю227484 0.0 1038746
20:00+7ююв119228 0.0 103813
14 апреля, ср
ср1423:00+5ю119616 0.0 103813
02:00+4ююз119626 0.0 103712
05:00+3ююз119535 0.0 103616
08:00+6юз008759 0.0 103549
11:00+13вюв11665 0.0 1032478
14:00+15ююв22585 0.0 10311074
17:00+15ююв22535 0.0 1030900
20:00+9ю11685 0.0 102910
15 апреля, чт
чт1523:00+6ю11675 0.0 103010
02:00+5ююз11675 0.0 102910
05:00+3юз11595 0.0 102910
08:00+7зюз11493 0.0 102716
11:00+14юз122834 0.0 1025419
14:00+16зюз232489 0.0 10231064
17:00+16з23276 0.0 10211217
20:00+10сз114941 0.0 102110
16 апреля, пт
пт1623:00
02:00+6сз11710 0.0 102010
05:00+4сз11765 0.0 101910
08:00+7зсз116460 0.0 101837
11:00+13сз114267 0.0 1016907
14:00+15сз233648 0.0 10141937
17:00+14сз344372 0.0 10131871
20:00+9зсз11728 0.1 101511
17 апреля, сб
сб1723:00+5ююв119413 0.2 101425
02:00+4вюв2295100 0.2 1016335
05:00+2вюв2398100 1.3 1018224
08:000вюв1396100 1.8 1019251
11:00+1юв1292100 2.3 1018387
14:00+1ю1192100 0.4 1017360
17:00+1ссз258642 1.4 1017597
20:00+1ссз497698 0.4 10171144